Шестаково

Россия / Иркутская область     56°29′25″N   103°57′39″E
темп.,
°C
ветер,
м/с
пор.,
м/с
влажн.,
%
обл.,
%
осадки,
мм/ч
давл.,
гПа
погр.,
м
12 мая, ср
ср1223:00+3с479497 0.1 1017600
02:00+1ссв389185 0.3 1018548
05:00−2с249821 0.0 1018116
08:00+1с36736 0.0 1018689
11:00+4с4548100 0.1 10171858
14:00+5с3542100 0.2 10161877
17:00+6с4541100 0.1 10162024
20:00+4ссв36505 0.2 1017541
13 мая, чт
чт1323:00−1с11745 0.0 101810
02:00−3ссз11815 0.0 101910
05:00−3с22856 0.0 101921
08:00+2с255735 0.0 1019550
11:00+6ссв4642100 0.0 10181975
14:00+9ссв3536100 0.0 10172260
17:00+10св3534100 0.0 10172153
20:00+7св11485 0.0 101710
14 мая, пт
пт1423:00+2ююв11620 0.0 101810
02:000ю11714 0.0 101910
05:00−1ю11770 0.0 101910
08:00+6ю22505 0.0 1018289
11:00+11ю33345 0.0 10151442
14:00+15ю342670 0.0 10122075
17:00+16ююз352399 0.0 10102318
20:00+11ю2241100 0.0 101013
15 мая, сб
сб1523:00+6ю225443 0.0 101111
02:00+4ю226214 0.0 101132
05:00+2ююз3106772 0.0 1011252
08:00+4з5992100 0.1 1014897
11:00+5з6967100 0.8 10151613
14:00+6з61055100 1.1 10151967
17:00+8зюз61153100 0.1 10131770
20:00+4зюз51296100 0.3 1014994
16 мая, вс
вс1623:00+4зюз51297100 1.3 10141039
02:00+5зюз51195100 1.5 1013986
05:00+5з3896100 1.2 1013910
08:00+5з1298100 3.9 1014133
11:00+4вюв1297100 6.8 1013183
14:00+6ююз1597100 8.9 1012294
17:00+7ююз2698100 3.9 1010291
20:00+7ююз21099100 7.7 1008399